Felix-Klein-Gymnasium, Gttingen, 150m NN
Wetterdaten: aktuell Dienstag, 27.10.2020 22:15
Datum Zeit Temp. A. Feuchte A. Luftdruck Regen Wind Richtung Richtung Sonnenschein Taupunkt Windchill Windben
27.10.2020 22:15 9,2 C 80 % 1005,1 hPa 0,0 mm 9,4 km/h (2 Bft) N-NO 23 0 min 5,9 C 7,8 C 19,3 km/h (3 Bft)
27.10.2020 22:00 9,0 C 81 % 1005,2 hPa 0,0 mm 10,3 km/h (2 Bft) O-NO 72 0 min 5,9 C 7,4 C 24,1 km/h (4 Bft)
27.10.2020 21:45 8,9 C 81 % 1005,0 hPa 0,0 mm 10,0 km/h (2 Bft) N-NW 346 0 min 5,8 C 7,3 C 24,1 km/h (4 Bft)
27.10.2020 21:30 8,9 C 82 % 1005,2 hPa 0,0 mm 8,9 km/h (2 Bft) N-NW 330 0 min 6,0 C 7,5 C 24,1 km/h (4 Bft)
27.10.2020 21:15 8,9 C 82 % 1005,5 hPa 0,0 mm 7,2 km/h (2 Bft) N-NO 24 0 min 6,0 C 7,9 C 24,1 km/h (4 Bft)
27.10.2020 21:00 8,9 C 82 % 1005,5 hPa 0,0 mm 8,4 km/h (2 Bft) N 360 0 min 6,0 C 7,6 C 20,9 km/h (4 Bft)
27.10.2020 20:45 8,9 C 83 % 1005,4 hPa 0,0 mm 9,1 km/h (2 Bft) N-NO 13 0 min 6,2 C 7,5 C 24,1 km/h (4 Bft)
27.10.2020 20:30 9,1 C 82 % 1005,5 hPa 0,0 mm 10,4 km/h (2 Bft) NO 46 0 min 6,2 C 7,5 C 22,5 km/h (4 Bft)
27.10.2020 20:15 9,1 C 82 % 1005,6 hPa 0,0 mm 8,3 km/h (2 Bft) N-NO 27 0 min 6,2 C 7,9 C 19,3 km/h (3 Bft)
27.10.2020 20:00 9,2 C 82 % 1005,6 hPa 0,0 mm 8,1 km/h (2 Bft) NO 44 0 min 6,3 C 8,0 C 17,7 km/h (3 Bft)
27.10.2020 19:45 9,2 C 82 % 1005,7 hPa 0,0 mm 7,9 km/h (2 Bft) N 355 0 min 6,3 C 8,1 C 20,9 km/h (4 Bft)
27.10.2020 19:30 9,2 C 82 % 1005,5 hPa 0,0 mm 9,1 km/h (2 Bft) N 360 0 min 6,3 C 7,8 C 19,3 km/h (3 Bft)
27.10.2020 19:15 9,2 C 82 % 1005,9 hPa 0,0 mm 7,6 km/h (2 Bft) N-NO 13 0 min 6,3 C 8,2 C 19,3 km/h (3 Bft)
27.10.2020 19:00 9,2 C 82 % 1005,9 hPa 0,0 mm 7,2 km/h (2 Bft) O 80 0 min 6,3 C 8,2 C 17,7 km/h (3 Bft)
27.10.2020 18:45 9,3 C 82 % 1006,0 hPa 0,0 mm 7,3 km/h (2 Bft) N 350 0 min 6,4 C 8,3 C 19,3 km/h (3 Bft)
27.10.2020 18:30 9,4 C 81 % 1005,8 hPa 0,0 mm 7,7 km/h (2 Bft) N-NO 24 0 min 6,3 C 8,4 C 20,9 km/h (4 Bft)
27.10.2020 18:15 9,4 C 81 % 1005,8 hPa 0,0 mm 7,3 km/h (2 Bft) N-NO 23 0 min 6,3 C 8,5 C 17,7 km/h (3 Bft)
27.10.2020 18:00 9,6 C 81 % 1005,9 hPa 0,0 mm 4,6 km/h (1 Bft) NO 49 0 min 6,5 C 9,4 C 16,1 km/h (3 Bft)
27.10.2020 17:45 9,8 C 80 % 1005,8 hPa 0,0 mm 5,1 km/h (1 Bft) O-NO 67 0 min 6,5 C 9,5 C 20,9 km/h (4 Bft)
27.10.2020 17:30 10,1 C 80 % 1005,8 hPa 0,0 mm 4,2 km/h (1 Bft) N-NW 334 0 min 6,8 C 10,1 C 22,5 km/h (4 Bft)
27.10.2020 17:15 10,3 C 79 % 1005,7 hPa 0,0 mm 5,9 km/h (2 Bft) N-NW 348 0 min 6,8 C 10,3 C 22,5 km/h (4 Bft)
27.10.2020 17:00 10,3 C 79 % 1005,8 hPa 0,0 mm 4,4 km/h (1 Bft) O 93 0 min 6,8 C 10,3 C 19,3 km/h (3 Bft)
27.10.2020 16:45 10,4 C 80 % 1005,7 hPa 0,0 mm 3,3 km/h (1 Bft) N 355 0 min 7,1 C 10,4 C 19,3 km/h (3 Bft)
27.10.2020 16:30 10,4 C 80 % 1005,7 hPa 0,0 mm 2,1 km/h (1 Bft) W 260 0 min 7,1 C 10,4 C 14,5 km/h (3 Bft)
27.10.2020 16:15 10,5 C 79 % 1005,7 hPa 0,0 mm 4,2 km/h (1 Bft) N 350 0 min 7,0 C 10,5 C 20,9 km/h (4 Bft)
27.10.2020 16:00 10,5 C 80 % 1005,6 hPa 0,0 mm 3,2 km/h (1 Bft) N-NW 333 0 min 7,2 C 10,5 C 14,5 km/h (3 Bft)
27.10.2020 15:45 10,5 C 80 % 1005,7 hPa 0,0 mm 5,4 km/h (1 Bft) N-NW 344 0 min 7,2 C 10,5 C 17,7 km/h (3 Bft)
27.10.2020 15:30 10,6 C 79 % 1005,5 hPa 0,0 mm 6,7 km/h (2 Bft) N 351 0 min 7,1 C 10,6 C 20,9 km/h (4 Bft)
27.10.2020 15:15 10,7 C 79 % 1005,4 hPa 0,0 mm 7,0 km/h (2 Bft) N-NW 348 0 min 7,2 C 10,7 C 22,5 km/h (4 Bft)
27.10.2020 15:00 10,6 C 79 % 1005,5 hPa 0,0 mm 7,2 km/h (2 Bft) N-NO 22 0 min 7,1 C 10,6 C 17,7 km/h (3 Bft)
27.10.2020 14:45 10,6 C 80 % 1005,6 hPa 0,0 mm 4,5 km/h (1 Bft) NO 54 0 min 7,3 C 10,6 C 14,5 km/h (3 Bft)
27.10.2020 14:30 10,5 C 80 % 1005,8 hPa 0,0 mm 3,0 km/h (1 Bft) N 355 0 min 7,2 C 10,5 C 12,9 km/h (3 Bft)
27.10.2020 14:15 10,5 C 79 % 1005,8 hPa 0,0 mm 4,7 km/h (1 Bft) N 355 0 min 7,0 C 10,5 C 16,1 km/h (3 Bft)
27.10.2020 14:00 10,7 C 78 % 1005,8 hPa 0,0 mm 3,0 km/h (1 Bft) N 11 0 min 7,0 C 10,7 C 16,1 km/h (3 Bft)
27.10.2020 13:45 10,9 C 75 % 1006,0 hPa 0,0 mm 5,7 km/h (1 Bft) N-NO 16 0 min 6,6 C 10,9 C 25,7 km/h (4 Bft)
27.10.2020 13:30 10,9 C 74 % 1005,9 hPa 0,0 mm 5,0 km/h (1 Bft) N-NO 26 0 min 6,5 C 10,9 C 27,4 km/h (4 Bft)
27.10.2020 13:15 10,9 C 73 % 1006,0 hPa 0,0 mm 3,2 km/h (1 Bft) O-NO 69 0 min 6,3 C 10,9 C 16,1 km/h (3 Bft)
27.10.2020 13:00 10,9 C 73 % 1006,0 hPa 0,0 mm 3,9 km/h (1 Bft) O-NO 62 0 min 6,3 C 10,9 C 30,6 km/h (5 Bft)
27.10.2020 12:45 10,8 C 74 % 1006,1 hPa 0,0 mm 3,4 km/h (1 Bft) O-NO 63 0 min 6,4 C 10,8 C 24,1 km/h (4 Bft)
27.10.2020 12:30 10,7 C 75 % 1006,2 hPa 0,0 mm 3,5 km/h (1 Bft) O-SO 103 0 min 6,5 C 10,7 C 19,3 km/h (3 Bft)
27.10.2020 12:15 10,7 C 74 % 1006,2 hPa 0,0 mm 2,6 km/h (1 Bft) NO 51 0 min 6,3 C 10,7 C 17,7 km/h (3 Bft)
27.10.2020 12:00 10,5 C 75 % 1006,2 hPa 0,0 mm 7,7 km/h (2 Bft) NO 42 0 min 6,3 C 10,5 C 29,0 km/h (5 Bft)
27.10.2020 11:45 10,6 C 74 % 1006,3 hPa 0,0 mm 5,2 km/h (1 Bft) O-NO 62 0 min 6,2 C 10,6 C 27,4 km/h (4 Bft)
27.10.2020 11:30 10,6 C 75 % 1006,2 hPa 0,0 mm 10,1 km/h (2 Bft) O-NO 66 0 min 6,4 C 10,6 C 40,2 km/h (6 Bft)
27.10.2020 11:15 10,6 C 74 % 1006,1 hPa 0,0 mm 12,3 km/h (3 Bft) N-NW 338 0 min 6,2 C 10,6 C 40,2 km/h (6 Bft)
27.10.2020 11:00 10,7 C 74 % 1006,1 hPa 0,0 mm 13,4 km/h (3 Bft) NO 43 0 min 6,3 C 10,7 C 38,6 km/h (5 Bft)
27.10.2020 10:45 10,7 C 75 % 1005,9 hPa 0,0 mm 15,6 km/h (3 Bft) O-NO 69 15 min 6,5 C 10,7 C 38,6 km/h (5 Bft)
27.10.2020 10:30 10,7 C 74 % 1005,7 hPa 0,0 mm 10,6 km/h (2 Bft) O-NO 70 0 min 6,3 C 10,7 C 29,0 km/h (5 Bft)
27.10.2020 10:15 10,7 C 75 % 1005,6 hPa 0,0 mm 7,2 km/h (2 Bft) N 5 15 min 6,5 C 10,7 C 27,4 km/h (4 Bft)
27.10.2020 10:00 10,6 C 76 % 1005,5 hPa 0,0 mm 8,3 km/h (2 Bft) NO 45 0 min 6,5 C 10,6 C 32,2 km/h (5 Bft)
27.10.2020 09:45 10,5 C 76 % 1005,6 hPa 0,0 mm 10,6 km/h (2 Bft) NO 36 15 min 6,5 C 10,5 C 30,6 km/h (5 Bft)
27.10.2020 09:30 10,3 C 78 % 1005,7 hPa 0,0 mm 8,3 km/h (2 Bft) NO 52 15 min 6,6 C 10,3 C 27,4 km/h (4 Bft)
27.10.2020 09:15 10,1 C 80 % 1005,7 hPa 0,0 mm 6,6 km/h (2 Bft) NO 45 0 min 6,8 C 10,1 C 32,2 km/h (5 Bft)
27.10.2020 09:00 9,5 C 82 % 1005,8 hPa 0,0 mm 4,4 km/h (1 Bft) N-NO 24 15 min 6,6 C 9,5 C 20,9 km/h (4 Bft)
27.10.2020 08:45 9,2 C 82 % 1005,7 hPa 0,0 mm 4,1 km/h (1 Bft) NO 44 0 min 6,3 C 9,2 C 27,4 km/h (4 Bft)
27.10.2020 08:30 9,0 C 83 % 1005,6 hPa 0,0 mm 4,8 km/h (1 Bft) N-NO 18 0 min 6,3 C 8,7 C 27,4 km/h (4 Bft)
27.10.2020 08:15 8,7 C 83 % 1005,6 hPa 0,0 mm 2,5 km/h (1 Bft) O 95 0 min 6,0 C 8,7 C 19,3 km/h (3 Bft)
27.10.2020 08:00 8,8 C 82 % 1005,4 hPa 0,0 mm 4,4 km/h (1 Bft) N 5 0 min 5,9 C 8,8 C 20,9 km/h (4 Bft)
27.10.2020 07:45 8,9 C 81 % 1005,2 hPa 0,0 mm 3,9 km/h (1 Bft) N-NO 17 0 min 5,8 C 8,9 C 16,1 km/h (3 Bft)
27.10.2020 07:30 9,1 C 81 % 1004,9 hPa 0,0 mm 3,7 km/h (1 Bft) N-NO 22 0 min 6,0 C 9,1 C 20,9 km/h (4 Bft)
27.10.2020 07:15 9,1 C 81 % 1005,0 hPa 0,0 mm 3,6 km/h (1 Bft) N 350 0 min 6,0 C 9,1 C 24,1 km/h (4 Bft)
27.10.2020 07:00 9,1 C 80 % 1004,8 hPa 0,0 mm 5,9 km/h (2 Bft) O-NO 63 0 min 5,8 C 8,5 C 25,7 km/h (4 Bft)
27.10.2020 06:45 9,1 C 80 % 1004,6 hPa 0,0 mm 6,2 km/h (2 Bft) N-NO 22 0 min 5,8 C 8,4 C 30,6 km/h (5 Bft)
27.10.2020 06:30 9,1 C 81 % 1004,7 hPa 0,0 mm 6,2 km/h (2 Bft) N-NO 23 0 min 6,0 C 8,4 C 25,7 km/h (4 Bft)
27.10.2020 06:15 9,0 C 81 % 1004,8 hPa 0,0 mm 6,7 km/h (2 Bft) N 360 0 min 5,9 C 8,1 C 22,5 km/h (4 Bft)
27.10.2020 06:00 9,1 C 81 % 1004,6 hPa 0,0 mm 8,1 km/h (2 Bft) NO 43 0 min 6,0 C 7,9 C 27,4 km/h (4 Bft)
27.10.2020 05:45 9,0 C 82 % 1004,6 hPa 0,0 mm 5,3 km/h (1 Bft) N-NW 330 0 min 6,1 C 8,5 C 27,4 km/h (4 Bft)
27.10.2020 05:30 9,0 C 82 % 1004,4 hPa 0,0 mm 9,1 km/h (2 Bft) N-NO 28 0 min 6,1 C 7,6 C 25,7 km/h (4 Bft)
27.10.2020 05:15 9,0 C 83 % 1004,4 hPa 0,0 mm 12,5 km/h (3 Bft) O-NO 76 0 min 6,3 C 7,0 C 37,0 km/h (5 Bft)
27.10.2020 05:00 8,7 C 85 % 1004,3 hPa 0,0 mm 6,8 km/h (2 Bft) O-NO 65 0 min 6,3 C 7,8 C 27,4 km/h (4 Bft)
27.10.2020 04:45 8,5 C 86 % 1004,1 hPa 0,0 mm 4,2 km/h (1 Bft) N-NO 24 0 min 6,3 C 8,5 C 17,7 km/h (3 Bft)
27.10.2020 04:30 8,1 C 87 % 1004,1 hPa 0,0 mm 2,2 km/h (1 Bft) NO 34 0 min 6,1 C 8,1 C 14,5 km/h (3 Bft)
27.10.2020 04:15 8,1 C 86 % 1003,9 hPa 0,0 mm 4,9 km/h (1 Bft) NO 39 0 min 5,9 C 7,6 C 19,3 km/h (3 Bft)
27.10.2020 04:00 8,3 C 86 % 1003,7 hPa 0,0 mm 3,7 km/h (1 Bft) NO 38 0 min 6,1 C 8,3 C 27,4 km/h (4 Bft)
27.10.2020 03:45 8,3 C 86 % 1003,6 hPa 0,0 mm 2,9 km/h (1 Bft) NO 46 0 min 6,1 C 8,3 C 16,1 km/h (3 Bft)
27.10.2020 03:30 8,3 C 86 % 1003,7 hPa 0,0 mm 2,0 km/h (1 Bft) NO 36 0 min 6,1 C 8,3 C 17,7 km/h (3 Bft)
27.10.2020 03:15 8,3 C 86 % 1003,8 hPa 0,0 mm 6,3 km/h (2 Bft) N-NW 336 0 min 6,1 C 7,4 C 14,5 km/h (3 Bft)
27.10.2020 03:00 8,4 C 86 % 1003,8 hPa 0,0 mm 1,3 km/h (1 Bft) N 5 0 min 6,2 C 8,4 C 11,3 km/h (2 Bft)
27.10.2020 02:45 8,6 C 85 % 1003,8 hPa 0,0 mm 1,7 km/h (1 Bft) N-NW 348 0 min 6,2 C 8,6 C 20,9 km/h (4 Bft)
27.10.2020 02:30 8,7 C 84 % 1003,9 hPa 0,0 mm 4,7 km/h (1 Bft) NO 43 0 min 6,2 C 8,4 C 22,5 km/h (4 Bft)
27.10.2020 02:15 8,7 C 84 % 1003,8 hPa 0,0 mm 4,1 km/h (1 Bft) NO 56 0 min 6,2 C 8,7 C 25,7 km/h (4 Bft)
27.10.2020 02:00 8,8 C 85 % 1004,0 hPa 0,0 mm 4,2 km/h (1 Bft) N 9 0 min 6,4 C 8,8 C 19,3 km/h (3 Bft)
27.10.2020 01:45 8,8 C 85 % 1004,0 hPa 0,0 mm 3,7 km/h (1 Bft) N-NW 336 0 min 6,4 C 8,8 C 16,1 km/h (3 Bft)
27.10.2020 01:30 8,7 C 85 % 1004,0 hPa 0,0 mm 4,5 km/h (1 Bft) N-NO 26 0 min 6,3 C 8,7 C 19,3 km/h (3 Bft)
27.10.2020 01:15 8,6 C 86 % 1003,9 hPa 0,0 mm 4,1 km/h (1 Bft) N-NO 24 0 min 6,4 C 8,6 C 16,1 km/h (3 Bft)
27.10.2020 01:00 8,6 C 86 % 1003,9 hPa 0,0 mm 2,4 km/h (1 Bft) N-NO 14 0 min 6,4 C 8,6 C 14,5 km/h (3 Bft)
27.10.2020 00:45 8,5 C 86 % 1003,9 hPa 0,0 mm 4,9 km/h (1 Bft) N 355 0 min 6,3 C 8,1 C 17,7 km/h (3 Bft)
27.10.2020 00:30 8,4 C 86 % 1004,0 hPa 0,0 mm 4,1 km/h (1 Bft) N 355 0 min 6,2 C 8,4 C 14,5 km/h (3 Bft)
27.10.2020 00:15 8,3 C 86 % 1004,0 hPa 0,0 mm 3,3 km/h (1 Bft) N 355 0 min 6,1 C 8,3 C 19,3 km/h (3 Bft)
27.10.2020 00:00 8,2 C 86 % 1003,9 hPa 0,0 mm 4,6 km/h (1 Bft) N-NW 348 0 min 6,0 C 7,9 C 14,5 km/h (3 Bft)
26.10.2020 23:45 8,1 C 86 % 1003,9 hPa 0,0 mm 4,8 km/h (1 Bft) N 360 0 min 5,9 C 7,7 C 12,9 km/h (3 Bft)
26.10.2020 23:30 8,0 C 86 % 1003,9 hPa 0,0 mm 8,0 km/h (2 Bft) N 360 0 min 5,8 C 6,7 C 17,7 km/h (3 Bft)
26.10.2020 23:15 7,8 C 86 % 1003,8 hPa 0,0 mm 3,2 km/h (1 Bft) N 360 0 min 5,6 C 7,8 C 12,9 km/h (3 Bft)
26.10.2020 23:00 8,0 C 86 % 1003,8 hPa 0,0 mm 3,6 km/h (1 Bft) NO 40 0 min 5,8 C 8,0 C 12,9 km/h (3 Bft)
_ Min-Zeit 23:15 13:00 03:45 - 03:00 - - - 23:15 23:30 03:00
Minimum _ 7,8 C 73 % 1003,6 hPa - 1,3 km/h (1 Bft) - - - 5,6 C 6,7 C 11,3 km/h (2 Bft)
_ Max-Zeit 13:00 04:30 11:45 23:00 10:45 - - 09:00 14:45 13:00 11:15
Maximum _ 10,9 C 87 % 1006,3 hPa 0,0 mm 15,6 km/h
O-NO (3 Bft)
- - 15 min 7,3 C 10,9 C 40,2 km/h
O-NO (6 Bft)
Durchschnitt _ 9,4 C 81 % 1005,0 hPa #0,0 mm 5,8 km/h (2 Bft) N - #1:15 h 6,3 C 9,0 C 21,3 km/h (4 Bft)